Regional Weather Roundup
Issued by NWS

Home | Current Version | Previous Version | Graphics & Text | Print | Product List | Glossary On
Versions: 1 2 3 4 5 6 7 8 9 10 11 12 13 14 15 16 17 18 19 20 21 22 23 24 25 26 27 28 29 30 31 32 33 34 35 36 37 38 39 40 41 42 43 44 45 46 47 48 49 50
000
ASUS43 KIND 031159
RWRIN

WEATHER ROUNDUP FOR INDIANA
NATIONAL WEATHER SERVICE INDIANAPOLIS IN
700 AM EST SAT DEC 03 2016

NOTE: "FAIR" INDICATES FEW OR NO CLOUDS BELOW 12,000 FEET WITH NO
SIGNIFICANT WEATHER AND/OR OBSTRUCTIONS TO VISIBILITY.

* - STATION DOES NOT REPORT WEATHER SUCH AS PRECIPITATION OR FOG.

+ - STATION NOT QUALITY CONTROLLED BY THE NATIONAL WEATHER SERVICE.
    USE DATA WITH CAUTION...ESPECIALLY DEWPOINT AND RELATIVE
    HUMIDITY OBSERVATIONS.

INZ001>003-010>013-019-020-031300-
NORTHWEST INDIANA

CITY           SKY/WX    TMP DP  RH WIND       PRES   REMARKS
GARY /AIRPORT/ CLOUDY    34  25  69 W7        30.36R WCI  28
LA PORTE +     CLOUDY    34  29  81 W9        30.34S WCI  27
6HR MIN TEMP:  34; 6HR MAX TEMP:  37;

MONTICELLO +   CLOUDY    34  26  72 CALM      30.33F
6HR MIN TEMP:  34; 6HR MAX TEMP:  36;


$$

LMZ046-743>745-031300-
SOUTHERN LAKE MICHIGAN

STATION/POSITION TIME  TEMP    WIND        PRES    WAVE
                       AIR SEA DIR/SP/G            HT
                 (UTC) (F)     (DEG/KT/KT) (MB)    (FT)
BURNS HARBOR     1140   35     260/ 11/ 14 1028.1R
MICHIGAN CITY    1130   35     220/ 16/ 18   N/A

$$

INZ004-005-014>016-021>024-031300-
NORTH CENTRAL INDIANA

CITY           SKY/WX    TMP DP  RH WIND       PRES   REMARKS
GOSHEN         CLOUDY    34  26  72 SW9       30.32R WCI  27
6HR MIN TEMP:  34; 6HR MAX TEMP:  35;

SOUTH BEND     CLOUDY    34  27  75 W8        30.34R WCI  27
6HR MIN TEMP:  33; 6HR MAX TEMP:  35;

WARSAW +       CLOUDY    32  25  74 W7        30.33R WCI  26

$$

INZ006>009-017-018-025>027-031300-
NORTHEAST INDIANA

CITY           SKY/WX    TMP DP  RH WIND       PRES   REMARKS
ANGOLA *+      CLOUDY    36  28  75 W3        30.30R
FORT WAYNE     CLOUDY    35  27  72 W9        30.33R WCI  28
6HR MIN TEMP:  35; 6HR MAX TEMP:  36;

KENDALLVILLE + CLOUDY    34  29  82 W6        30.31R WCI  29

$$

INZ028-029-035-036-043>045-051>053-031300-
WEST CENTRAL INDIANA

CITY           SKY/WX    TMP DP  RH WIND       PRES   REMARKS
CRAWFORDSVL +  CLOUDY    32  28  85 N3        30.34F
6HR MIN TEMP:  32; 6HR MAX TEMP:  35;

GREENCASTLE +  CLOUDY    36  30  80 NW6       30.34F
LAFAYETTE      CLOUDY    33  28  81 W8        30.35S WCI  26
6HR MIN TEMP:  33; 6HR MAX TEMP:  36;

TERRE HAUTE    CLOUDY    37  28  70 NW5       30.37F
6HR MIN TEMP:  36; 6HR MAX TEMP:  39;


$$

INZ030>032-037>040-046>048-054>057-064-065-031300-
CENTRAL INDIANA

CITY           SKY/WX    TMP DP  RH WIND       PRES   REMARKS
COLUMBUS       CLOUDY    37  32  81 NW5       30.35
FRANKFORT +    CLOUDY    37  31  79 NW12      30.35S
6HR MIN TEMP:  37; 6HR MAX TEMP:  38;

GREENWOOD *+   CLOUDY    38  28  69 NW5       30.34F
6HR MIN TEMP:  37; 6HR MAX TEMP:  38;

INDIANAPOLIS   CLOUDY    37  28  70 W12       30.34S
6HR MIN TEMP:  37; 6HR MAX TEMP:  37;

-EAGLE CREEK   CLOUDY    38  28  67 W7        30.33S
6HR MIN TEMP:  38; 6HR MAX TEMP:  38;

KOKOMO +       CLOUDY    35  29  78 N5        30.34R WCI  31
6HR MIN TEMP:  35; 6HR MAX TEMP:  36;

SHELBYVILLE    CLOUDY    38  30  73 NW5       30.33S
6HR MIN TEMP:  38; 6HR MAX TEMP:  38;


$$

INZ033-034-041-042-049-050-058-059-031300-
EAST CENTRAL INDIANA

CITY           SKY/WX    TMP DP  RH WIND       PRES   REMARKS
MUNCIE         CLOUDY    37  28  70 W7        30.33R
6HR MIN TEMP:  37; 6HR MAX TEMP:  38;


$$

INZ060-061-067>069-081>083-085>088-031300-
SOUTHWEST INDIANA

CITY           SKY/WX    TMP DP  RH WIND       PRES   REMARKS
EVANSVILLE     CLOUDY    33  30  88 CALM      30.38R
6HR MIN TEMP:  28; 6HR MAX TEMP:  34;

HUNTINGBURG *+ CLOUDY    37  33  85 CALM      30.37R
6HR MIN TEMP:  37; 6HR MAX TEMP:  40;

WASHINGTON +   CLOUDY    38  34  84 CALM      30.36R
6HR MIN TEMP:  38; 6HR MAX TEMP:  39;


$$

INZ062-063-066-070>080-084-089>092-031300-
SOUTH CENTRAL AND SOUTHEAST INDIANA

CITY           SKY/WX    TMP DP  RH WIND       PRES   REMARKS
BLOOMINGTON    CLOUDY    37  31  78 CALM      30.34F
6HR MIN TEMP:  37; 6HR MAX TEMP:  38;

MADISON *+     CLOUDY    37  32  81 CALM      30.35F
SEYMOUR +      CLOUDY    39  32  75 CALM      30.35F

$$





USA.gov is the U.S. government's official web portal to all federal, state and local government web resources and services.